﻿測定場所 (Monitoring sites),日付 (Measurement date),時間 (Measurement time),線量率 最大値 (max) μGy/h,線量率 最小値 (min) μGy/h,線量率 平均値 (average) μGy/h,
大田 (Ota),2021-03-14,23:01～24:00,0.0345,0.0309,0.0325,
大田 (Ota),2021-03-14,22:01～23:00,0.0338,0.0303,0.0322,
大田 (Ota),2021-03-14,21:01～22:00,0.0350,0.0310,0.0326,
大田 (Ota),2021-03-14,20:01～21:00,0.0345,0.0304,0.0324,
大田 (Ota),2021-03-14,19:01～20:00,0.0350,0.0304,0.0322,
大田 (Ota),2021-03-14,18:01～19:00,0.0339,0.0307,0.0324,
大田 (Ota),2021-03-14,17:01～18:00,0.0344,0.0305,0.0324,
大田 (Ota),2021-03-14,16:01～17:00,0.0340,0.0304,0.0324,
大田 (Ota),2021-03-14,15:01～16:00,0.0339,0.0301,0.0322,
大田 (Ota),2021-03-14,14:01～15:00,0.0339,0.0286,0.0322,
大田 (Ota),2021-03-14,13:01～14:00,0.0347,0.0307,0.0325,
大田 (Ota),2021-03-14,12:01～13:00,0.0349,0.0304,0.0326,
大田 (Ota),2021-03-14,11:01～12:00,0.0357,0.0302,0.0327,
大田 (Ota),2021-03-14,10:01～11:00,0.0350,0.0302,0.0329,
大田 (Ota),2021-03-14,09:01～10:00,0.0353,0.0299,0.0328,
大田 (Ota),2021-03-14,08:01～09:00,0.0341,0.0312,0.0328,
大田 (Ota),2021-03-14,07:01～08:00,0.0358,0.0315,0.0330,
大田 (Ota),2021-03-14,06:01～07:00,0.0351,0.0314,0.0330,
大田 (Ota),2021-03-14,05:01～06:00,0.0349,0.0304,0.0328,
大田 (Ota),2021-03-14,04:01～05:00,0.0350,0.0313,0.0332,
大田 (Ota),2021-03-14,03:01～04:00,0.0349,0.0309,0.0327,
大田 (Ota),2021-03-14,02:01～03:00,0.0345,0.0302,0.0325,
大田 (Ota),2021-03-14,01:01～02:00,0.0349,0.0305,0.0323,
大田 (Ota),2021-03-14,00:01～01:00,0.0340,0.0297,0.0324,
大田 (Ota),2021-03-13,23:01～24:00,0.0347,0.0309,0.0325,
大田 (Ota),2021-03-13,22:01～23:00,0.0348,0.0292,0.0325,
大田 (Ota),2021-03-13,21:01～22:00,0.0346,0.0304,0.0324,
大田 (Ota),2021-03-13,20:01～21:00,0.0351,0.0312,0.0330,
大田 (Ota),2021-03-13,19:01～20:00,0.0383,0.0322,0.0351,
大田 (Ota),2021-03-13,18:01～19:00,0.0429,0.0356,0.0385,
大田 (Ota),2021-03-13,17:01～18:00,0.0499,0.0391,0.0449,
大田 (Ota),2021-03-13,16:01～17:00,0.0501,0.0420,0.0448,
大田 (Ota),2021-03-13,15:01～16:00,0.0481,0.0395,0.0440,
大田 (Ota),2021-03-13,14:01～15:00,0.0537,0.0380,0.0471,
大田 (Ota),2021-03-13,13:01～14:00,0.0403,0.0322,0.0359,
大田 (Ota),2021-03-13,12:01～13:00,0.0366,0.0315,0.0342,
大田 (Ota),2021-03-13,11:01～12:00,0.0401,0.0336,0.0359,
大田 (Ota),2021-03-13,10:01～11:00,0.0447,0.0356,0.0411,
大田 (Ota),2021-03-13,09:01～10:00,0.0505,0.0398,0.0454,
大田 (Ota),2021-03-13,08:01～09:00,0.0518,0.0424,0.0470,
大田 (Ota),2021-03-13,07:01～08:00,0.0526,0.0449,0.0479,
大田 (Ota),2021-03-13,06:01～07:00,0.0528,0.0457,0.0490,
大田 (Ota),2021-03-13,05:01～06:00,0.0512,0.0421,0.0453,
大田 (Ota),2021-03-13,04:01～05:00,0.0452,0.0364,0.0414,
大田 (Ota),2021-03-13,03:01～04:00,0.0406,0.0328,0.0362,
大田 (Ota),2021-03-13,02:01～03:00,0.0357,0.0328,0.0342,
大田 (Ota),2021-03-13,01:01～02:00,0.0360,0.0317,0.0337,
大田 (Ota),2021-03-13,00:01～01:00,0.0373,0.0328,0.0345,
大田 (Ota),2021-03-12,23:01～24:00,0.0376,0.0328,0.0353,
大田 (Ota),2021-03-12,22:01～23:00,0.0371,0.0322,0.0353,
大田 (Ota),2021-03-12,21:01～22:00,0.0367,0.0308,0.0331,
大田 (Ota),2021-03-12,20:01～21:00,0.0348,0.0305,0.0329,
大田 (Ota),2021-03-12,19:01～20:00,0.0350,0.0312,0.0332,
大田 (Ota),2021-03-12,18:01～19:00,0.0353,0.0308,0.0334,
大田 (Ota),2021-03-12,17:01～18:00,0.0352,0.0306,0.0333,
大田 (Ota),2021-03-12,16:01～17:00,0.0362,0.0313,0.0333,
大田 (Ota),2021-03-12,15:01～16:00,0.0353,0.0315,0.0333,
大田 (Ota),2021-03-12,14:01～15:00,0.0360,0.0315,0.0333,
大田 (Ota),2021-03-12,13:01～14:00,0.0358,0.0317,0.0336,
大田 (Ota),2021-03-12,12:01～13:00,0.0358,0.0318,0.0334,
大田 (Ota),2021-03-12,11:01～12:00,0.0356,0.0320,0.0339,
大田 (Ota),2021-03-12,10:01～11:00,0.0360,0.0318,0.0339,
大田 (Ota),2021-03-12,09:01～10:00,0.0369,0.0321,0.0343,
大田 (Ota),2021-03-12,08:01～09:00,0.0357,0.0318,0.0340,
大田 (Ota),2021-03-12,07:01～08:00,0.0350,0.0317,0.0335,
大田 (Ota),2021-03-12,06:01～07:00,0.0365,0.0320,0.0336,
大田 (Ota),2021-03-12,05:01～06:00,0.0358,0.0317,0.0335,
大田 (Ota),2021-03-12,04:01～05:00,0.0360,0.0314,0.0334,
大田 (Ota),2021-03-12,03:01～04:00,0.0366,0.0315,0.0334,
大田 (Ota),2021-03-12,02:01～03:00,0.0359,0.0310,0.0333,
大田 (Ota),2021-03-12,01:01～02:00,0.0359,0.0312,0.0335,
大田 (Ota),2021-03-12,00:01～01:00,0.0356,0.0317,0.0330,
大田 (Ota),2021-03-11,23:01～24:00,0.0351,0.0311,0.0331,
大田 (Ota),2021-03-11,22:01～23:00,0.0348,0.0317,0.0331,
大田 (Ota),2021-03-11,21:01～22:00,0.0357,0.0309,0.0332,
大田 (Ota),2021-03-11,20:01～21:00,0.0344,0.0309,0.0329,
大田 (Ota),2021-03-11,19:01～20:00,0.0346,0.0306,0.0329,
大田 (Ota),2021-03-11,18:01～19:00,0.0353,0.0309,0.0328,
大田 (Ota),2021-03-11,17:01～18:00,0.0343,0.0310,0.0328,
大田 (Ota),2021-03-11,16:01～17:00,0.0353,0.0307,0.0328,
大田 (Ota),2021-03-11,15:01～16:00,0.0351,0.0308,0.0331,
大田 (Ota),2021-03-11,14:01～15:00,0.0352,0.0309,0.0330,
大田 (Ota),2021-03-11,13:01～14:00,0.0350,0.0315,0.0332,
大田 (Ota),2021-03-11,12:01～13:00,0.0356,0.0319,0.0333,
大田 (Ota),2021-03-11,11:01～12:00,0.0353,0.0320,0.0334,
大田 (Ota),2021-03-11,10:01～11:00,0.0349,0.0308,0.0333,
大田 (Ota),2021-03-11,09:01～10:00,0.0350,0.0306,0.0330,
大田 (Ota),2021-03-11,08:01～09:00,0.0362,0.0311,0.0332,
大田 (Ota),2021-03-11,07:01～08:00,0.0355,0.0313,0.0330,
大田 (Ota),2021-03-11,06:01～07:00,0.0349,0.0299,0.0328,
大田 (Ota),2021-03-11,05:01～06:00,0.0351,0.0304,0.0329,
大田 (Ota),2021-03-11,04:01～05:00,0.0351,0.0309,0.0329,
大田 (Ota),2021-03-11,03:01～04:00,0.0348,0.0305,0.0331,
大田 (Ota),2021-03-11,02:01～03:00,0.0347,0.0306,0.0330,
大田 (Ota),2021-03-11,01:01～02:00,0.0347,0.0310,0.0328,
大田 (Ota),2021-03-11,00:01～01:00,0.0351,0.0309,0.0332,
大田 (Ota),2021-03-10,23:01～24:00,0.0353,0.0308,0.0330,
大田 (Ota),2021-03-10,22:01～23:00,0.0348,0.0313,0.0330,
大田 (Ota),2021-03-10,21:01～22:00,0.0348,0.0308,0.0327,
大田 (Ota),2021-03-10,20:01～21:00,0.0354,0.0307,0.0328,
大田 (Ota),2021-03-10,19:01～20:00,0.0349,0.0313,0.0329,
大田 (Ota),2021-03-10,18:01～19:00,0.0357,0.0310,0.0329,
大田 (Ota),2021-03-10,17:01～18:00,0.0347,0.0314,0.0329,
大田 (Ota),2021-03-10,16:01～17:00,0.0362,0.0310,0.0326,
大田 (Ota),2021-03-10,15:01～16:00,0.0347,0.0316,0.0329,
大田 (Ota),2021-03-10,14:01～15:00,0.0349,0.0311,0.0331,
大田 (Ota),2021-03-10,13:01～14:00,0.0350,0.0316,0.0332,
大田 (Ota),2021-03-10,12:01～13:00,0.0358,0.0313,0.0334,
大田 (Ota),2021-03-10,11:01～12:00,0.0358,0.0304,0.0333,
大田 (Ota),2021-03-10,10:01～11:00,0.0350,0.0312,0.0334,
大田 (Ota),2021-03-10,09:01～10:00,0.0348,0.0315,0.0334,
大田 (Ota),2021-03-10,08:01～09:00,0.0354,0.0318,0.0336,
大田 (Ota),2021-03-10,07:01～08:00,0.0359,0.0318,0.0332,
大田 (Ota),2021-03-10,06:01～07:00,0.0345,0.0309,0.0328,
大田 (Ota),2021-03-10,05:01～06:00,0.0357,0.0310,0.0332,
大田 (Ota),2021-03-10,04:01～05:00,0.0354,0.0311,0.0328,
大田 (Ota),2021-03-10,03:01～04:00,0.0351,0.0308,0.0331,
大田 (Ota),2021-03-10,02:01～03:00,0.0348,0.0308,0.0327,
大田 (Ota),2021-03-10,01:01～02:00,0.0348,0.0301,0.0323,
大田 (Ota),2021-03-10,00:01～01:00,0.0347,0.0305,0.0325,
大田 (Ota),2021-03-09,23:01～24:00,0.0344,0.0303,0.0325,
大田 (Ota),2021-03-09,22:01～23:00,0.0345,0.0302,0.0325,
大田 (Ota),2021-03-09,21:01～22:00,0.0341,0.0300,0.0324,
大田 (Ota),2021-03-09,20:01～21:00,0.0349,0.0305,0.0325,
大田 (Ota),2021-03-09,19:01～20:00,0.0348,0.0307,0.0327,
大田 (Ota),2021-03-09,18:01～19:00,0.0346,0.0303,0.0325,
大田 (Ota),2021-03-09,17:01～18:00,0.0350,0.0306,0.0327,
大田 (Ota),2021-03-09,16:01～17:00,0.0351,0.0307,0.0327,
大田 (Ota),2021-03-09,15:01～16:00,0.0345,0.0304,0.0328,
大田 (Ota),2021-03-09,14:01～15:00,0.0354,0.0317,0.0330,
大田 (Ota),2021-03-09,13:01～14:00,0.0360,0.0307,0.0330,
大田 (Ota),2021-03-09,12:01～13:00,0.0350,0.0312,0.0329,
大田 (Ota),2021-03-09,11:01～12:00,0.0355,0.0308,0.0332,
大田 (Ota),2021-03-09,10:01～11:00,0.0356,0.0312,0.0334,
大田 (Ota),2021-03-09,09:01～10:00,0.0355,0.0299,0.0332,
大田 (Ota),2021-03-09,08:01～09:00,0.0354,0.0313,0.0332,
大田 (Ota),2021-03-09,07:01～08:00,0.0362,0.0322,0.0339,
大田 (Ota),2021-03-09,06:01～07:00,0.0352,0.0298,0.0330,
大田 (Ota),2021-03-09,05:01～06:00,0.0347,0.0303,0.0325,
大田 (Ota),2021-03-09,04:01～05:00,0.0347,0.0295,0.0325,
大田 (Ota),2021-03-09,03:01～04:00,0.0343,0.0307,0.0325,
大田 (Ota),2021-03-09,02:01～03:00,0.0338,0.0301,0.0323,
大田 (Ota),2021-03-09,01:01～02:00,0.0347,0.0305,0.0324,
大田 (Ota),2021-03-09,00:01～01:00,0.0341,0.0298,0.0324,
大田 (Ota),2021-03-08,23:01～24:00,0.0343,0.0301,0.0325,
大田 (Ota),2021-03-08,22:01～23:00,0.0351,0.0303,0.0326,
大田 (Ota),2021-03-08,21:01～22:00,0.0349,0.0305,0.0326,
大田 (Ota),2021-03-08,20:01～21:00,0.0348,0.0308,0.0325,
大田 (Ota),2021-03-08,19:01～20:00,0.0347,0.0305,0.0325,
大田 (Ota),2021-03-08,18:01～19:00,0.0359,0.0307,0.0330,
大田 (Ota),2021-03-08,17:01～18:00,0.0363,0.0314,0.0344,
大田 (Ota),2021-03-08,16:01～17:00,0.0369,0.0329,0.0347,
大田 (Ota),2021-03-08,15:01～16:00,0.0399,0.0340,0.0365,
大田 (Ota),2021-03-08,14:01～15:00,0.0390,0.0338,0.0362,
大田 (Ota),2021-03-08,13:01～14:00,0.0388,0.0337,0.0360,
大田 (Ota),2021-03-08,12:01～13:00,0.0394,0.0345,0.0363,
大田 (Ota),2021-03-08,11:01～12:00,0.0403,0.0358,0.0373,
大田 (Ota),2021-03-08,10:01～11:00,0.0439,0.0362,0.0393,
大田 (Ota),2021-03-08,09:01～10:00,0.0414,0.0348,0.0383,
大田 (Ota),2021-03-08,08:01～09:00,0.0386,0.0340,0.0363,
大田 (Ota),2021-03-08,07:01～08:00,0.0417,0.0354,0.0374,
大田 (Ota),2021-03-08,06:01～07:00,0.0408,0.0340,0.0362,
大田 (Ota),2021-03-08,05:01～06:00,0.0402,0.0350,0.0375,
大田 (Ota),2021-03-08,04:01～05:00,0.0410,0.0343,0.0366,
大田 (Ota),2021-03-08,03:01～04:00,0.0380,0.0329,0.0358,
大田 (Ota),2021-03-08,02:01～03:00,0.0381,0.0336,0.0355,
大田 (Ota),2021-03-08,01:01～02:00,0.0373,0.0319,0.0338,
大田 (Ota),2021-03-08,00:01～01:00,0.0345,0.0310,0.0327,
